Wind_Speed
41 42 44 42 43 46 49 50 50 48 47 44 40 39 37 36 37 38 38 38 38 38 38 37 37 36 35 34 34 33 33 33 32 32 32 32 31 31 31 31 31 32 32 32
42 44 45 45 42 43 46 48 47 46 47 45 43 41 39 37 37 38 38 38 38 38 37 37 36 35 34 33 33 33 32 32 31 31 31 31 31 30 30 30 30 31 31 32
40 43 45 47 43 41 42 46 47 47 45 46 45 42 40 38 37 37 38 39 39 38 37 36 36 35 34 33 32 32 32 31 31 30 30 30 30 30 29 30 30 30 31 32
38 41 43 43 43 42 44 45 46 46 46 46 46 43 42 41 40 40 40 40 39 39 37 36 35 34 34 33 32 31 31 30 30 29 29 29 29 29 29 29 30 30 31 32
36 38 40 41 41 40 42 45 46 47 46 46 46 46 45 44 43 42 41 41 39 38 37 36 35 34 33 32 31 30 30 29 29 29 28 28 28 28 28 29 30 31 32 33
35 37 39 38 38 38 41 43 44 46 46 47 48 47 45 44 43 41 41 41 40 39 38 37 36 34 33 31 30 29 29 29 28 28 28 28 28 28 29 30 30 31 32 33
34 36 38 37 37 38 41 40 41 43 45 47 47 44 41 42 43 42 41 41 40 39 38 37 36 34 33 31 30 29 29 29 28 28 28 28 28 29 29 30 30 31 32 33
35 37 37 37 38 39 39 39 40 42 44 45 44 43 43 42 43 43 41 41 40 39 37 36 35 34 33 32 31 30 29 29 28 28 28 28 28 29 29 30 31 32 32 33
36 36 35 37 39 40 39 39 39 41 43 43 43 43 43 43 43 42 41 40 38 37 36 36 35 34 33 32 31 30 29 29 29 29 28 28 29 29 30 30 31 32 33 33
37 35 35 37 39 41 40 40 40 40 42 43 42 42 42 42 42 41 41 39 37 36 36 35 35 34 33 32 31 30 29 29 28 28 28 28 29 29 30 31 31 32 33 33
37 36 35 37 37 40 41 41 41 39 41 42 42 41 41 41 42 41 40 38 37 36 35 34 33 33 32 31 31 30 29 29 28 28 28 29 29 29 30 30 31 31 32 33
35 35 37 37 37 39 41 42 42 40 40 41 41 41 40 39 40 39 39 39 38 36 35 34 33 32 32 31 31 30 29 29 29 28 29 29 29 30 30 30 31 32 32 32
36 36 38 39 39 40 41 41 41 41 40 40 41 41 40 39 39 38 38 38 37 36 35 34 34 33 32 31 30 30 29 29 28 28 29 29 29 30 30 30 31 31 32 32
36 38 38 39 40 41 42 42 42 41 41 41 40 39 39 39 39 39 38 38 37 36 36 35 34 33 31 30 29 29 29 29 28 28 29 29 29 29 29 30 30 31 31 32
34 37 37 38 39 41 43 43 43 42 41 40 38 38 38 38 38 38 38 37 36 36 35 35 34 33 31 30 30 29 28 28 28 28 28 28 28 29 29 29 30 30 31 32
32 35 36 38 40 41 42 43 43 42 41 40 39 38 37 37 38 38 37 37 35 35 35 35 33 32 31 30 29 28 28 28 27 27 27 27 28 28 28 29 29 30 31 32
30 32 35 38 40 42 42 42 42 43 42 41 39 39 37 36 36 36 37 37 35 36 35 34 33 31 30 30 29 28 27 27 27 27 27 27 27 27 27 28 29 30 31 32
29 30 33 37 41 42 42 41 41 41 40 40 39 38 37 36 35 36 37 36 36 35 34 33 32 31 30 29 28 28 27 27 26 26 27 26 26 26 27 28 29 30 31 32
29 29 33 37 40 42 42 42 41 40 39 39 38 38 37 37 36 37 37 37 36 34 33 32 31 30 29 28 27 27 26 26 26 26 26 26 26 26 27 28 29 30 31 33
28 29 31 35 39 42 42 41 40 39 38 38 38 38 37 37 36 36 35 35 35 34 33 31 30 29 28 27 26 26 26 26 26 26 25 25 26 26 27 28 29 30 32 33
29 30 31 34 38 41 42 42 40 38 37 36 37 37 36 35 34 33 33 33 32 32 31 30 29 28 27 26 26 26 26 26 25 25 25 25 26 27 27 28 30 31 33 34
28 30 31 34 38 40 42 41 40 39 36 36 36 36 35 35 34 33 32 32 32 31 30 29 28 27 26 26 26 26 26 25 25 25 25 26 26 27 28 29 30 32 34 35
28 30 32 35 38 41 42 41 40 39 37 36 36 35 35 35 34 34 33 32 31 30 29 28 27 27 26 26 26 26 25 25 25 25 25 26 26 28 29 30 31 33 35 36
27 29 32 35 38 41 42 41 40 39 38 37 36 36 36 36 35 34 33 32 31 30 29 28 28 27 27 26 26 26 25 25 25 26 26 26 27 28 30 31 33 34 36 38
26 29 33 35 36 38 40 40 40 40 39 37 35 36 36 36 34 33 32 31 31 30 29 29 28 28 27 27 26 26 26 25 26 26 27 27 28 30 31 32 34 35 37 39
27 29 31 33 34 36 38 39 40 40 38 36 35 35 35 35 33 32 31 30 29 28 28 28 28 27 27 26 25 25 25 26 26 27 27 28 29 31 32 33 35 36 38 40
29 30 31 32 33 35 37 38 39 39 37 36 35 35 34 33 32 31 31 30 28 28 28 28 27 26 26 26 26 26 26 26 26 27 28 29 30 32 33 35 36 37 39 40
Wind_Direction
225 225 224 222 222 221 223 224 224 221 221 219 220 218 216 216 218 220 222 224 226 228 231 233 236 239 242 244 247 250 252 255 257 260 262 264 267 270 273 275 277 280 283 285
229 229 228 224 222 223 222 222 222 220 219 219 220 219 218 218 218 219 221 223 225 227 230 233 236 238 241 244 246 249 252 254 256 259 261 264 267 270 273 275 278 281 284 286
229 229 230 227 224 223 221 220 221 220 218 219 219 220 219 219 218 219 220 222 225 228 231 233 235 238 242 244 246 249 252 254 256 259 261 264 267 270 273 276 278 281 284 287
229 228 231 228 226 225 223 221 221 219 218 218 219 219 219 218 217 218 220 222 224 227 230 232 235 238 241 244 247 250 252 255 257 259 261 264 267 269 273 276 279 282 285 287
230 231 230 226 225 224 224 221 220 219 219 218 218 218 218 218 218 218 219 222 224 228 230 232 235 238 240 244 247 250 253 255 257 259 261 263 266 269 273 276 279 282 285 288
229 230 227 222 222 223 222 221 218 220 219 219 219 220 217 217 218 219 220 222 224 227 230 233 235 238 241 243 246 249 252 254 257 258 260 263 266 270 274 278 281 284 286 289
227 228 225 220 220 220 221 219 219 219 218 219 220 218 214 216 217 218 220 221 223 227 229 232 234 237 240 243 245 248 251 253 256 258 260 263 267 271 275 279 282 284 287 289
227 228 225 220 221 220 219 218 218 218 217 217 217 216 215 215 217 219 221 222 224 227 229 230 233 236 239 241 244 247 250 253 256 259 262 264 268 272 276 280 282 285 287 291
226 226 224 220 218 217 218 216 216 216 215 216 217 217 217 218 219 221 223 223 225 227 227 230 232 235 237 239 243 246 250 252 255 259 263 266 269 274 277 280 283 286 289 292
225 222 221 217 215 215 214 214 214 215 214 214 215 216 218 218 218 219 222 223 225 225 227 230 232 234 235 238 241 245 249 251 255 258 262 267 272 275 278 281 284 287 290 293
225 220 219 217 215 213 214 214 213 214 215 215 214 215 216 217 219 219 219 221 223 225 226 229 231 233 235 237 241 245 248 251 254 259 264 269 273 277 280 283 286 289 291 294
222 218 216 213 211 211 213 214 214 213 213 214 215 216 216 217 218 218 218 219 222 225 226 228 231 232 234 237 241 245 248 251 255 260 265 269 273 278 281 284 287 289 292 294
221 218 216 212 211 211 212 212 213 211 211 212 215 216 215 217 217 218 218 219 222 224 226 227 229 231 234 237 240 244 247 251 256 261 266 270 275 279 282 285 287 290 292 295
222 219 216 213 211 211 213 213 212 209 209 211 214 215 214 215 216 217 218 219 221 222 225 227 229 231 233 235 239 243 248 253 257 262 266 271 275 278 281 285 287 290 293 296
222 220 217 214 212 211 212 213 212 209 207 208 211 212 212 212 213 215 217 218 219 220 223 225 227 228 231 235 240 245 250 253 258 263 267 271 275 278 282 285 288 291 294 297
223 222 218 215 212 211 210 211 211 209 206 207 209 210 210 211 211 214 215 216 217 218 221 223 225 227 231 235 240 244 248 253 258 263 267 271 275 279 282 286 289 292 294 298
222 220 217 212 210 209 208 208 209 209 208 208 208 209 209 208 208 210 212 213 214 216 218 221 224 227 231 234 238 243 248 253 258 263 267 271 275 279 283 287 290 293 296 299
222 220 214 210 207 205 205 206 207 207 208 207 207 207 207 208 208 209 211 212 214 217 219 221 223 227 231 234 238 243 249 255 259 263 267 271 275 280 284 288 291 294 297 300
223 219 213 208 206 204 202 204 206 207 206 204 205 206 208 208 208 208 211 213 215 217 219 221 223 227 230 234 239 245 251 255 259 264 268 272 277 281 285 289 292 295 298 302
223 218 213 208 206 204 201 202 203 204 203 203 204 206 207 209 209 208 210 213 213 215 218 221 224 227 231 236 242 247 251 255 259 263 268 273 278 282 286 289 292 296 300 303
222 216 211 206 204 203 201 202 202 202 203 203 203 204 206 207 207 207 208 211 213 215 218 222 226 230 234 239 244 248 252 256 259 264 269 274 279 283 287 290 294 298 301 304
218 214 210 206 202 202 200 201 201 202 202 203 204 205 205 206 206 207 208 211 213 216 220 224 227 232 237 242 245 249 252 257 261 266 271 276 280 284 288 292 296 299 303 306
216 212 208 204 200 199 199 200 200 202 203 204 204 205 205 205 207 210 211 213 216 219 222 225 230 234 238 242 245 249 253 258 263 268 273 278 281 285 289 293 297 300 304 307
210 207 203 199 197 197 197 197 200 201 202 202 204 205 206 207 209 211 212 215 218 221 224 228 232 236 240 243 247 250 254 259 265 270 274 278 282 286 290 294 297 301 304 307
203 199 197 196 196 195 194 196 198 200 201 202 205 206 207 208 210 211 212 216 219 222 227 231 234 238 241 245 248 252 257 262 267 271 275 278 282 287 291 294 298 301 304 307
198 195 193 192 193 194 195 197 197 198 199 202 205 206 208 209 211 213 215 218 221 225 229 232 235 239 242 246 251 255 260 265 269 272 276 280 284 288 291 294 298 301 304 307
196 193 190 191 192 193 195 197 196 197 199 201 203 205 207 209 212 215 217 220 224 228 231 233 236 239 244 249 253 258 263 267 271 274 277 281 285 289 292 295 299 302 305 308
Height
5523 5528 5535 5542 5549 5554 5561 5571 5580 5592 5600 5609 5615 5621 5628 5634 5640 5646 5651 5657 5662 5667 5672 5677 5681 5685 5689 5693 5696 5698 5700 5702 5703 5705 5705 5706 5706 5706 5705 5704 5703 5702 5700 5698
5515 5520 5525 5532 5540 5546 5554 5564 5573 5582 5590 5599 5605 5612 5619 5625 5631 5637 5643 5648 5653 5658 5664 5668 5673 5677 5681 5684 5687 5690 5692 5694 5695 5696 5697 5697 5698 5697 5697 5696 5695 5694 5692 5690
5508 5513 5516 5524 5533 5540 5548 5556 5565 5573 5584 5588 5596 5603 5611 5617 5623 5629 5634 5640 5645 5650 5655 5660 5665 5669 5673 5676 5679 5681 5684 5685 5687 5688 5689 5690 5690 5690 5689 5689 5688 5686 5684 5682
5500 5505 5509 5521 5527 5533 5541 5548 5556 5564 5572 5579 5587 5594 5601 5608 5614 5619 5625 5631 5637 5642 5647 5652 5657 5661 5665 5668 5671 5673 5675 5677 5679 5680 5681 5682 5682 5682 5682 5681 5680 5678 5676 5674
5492 5496 5502 5513 5520 5527 5533 5540 5548 5556 5563 5570 5577 5583 5591 5598 5604 5611 5617 5623 5629 5634 5639 5644 5649 5653 5657 5660 5663 5665 5668 5670 5671 5673 5674 5674 5674 5674 5674 5673 5672 5670 5668 5666
5484 5489 5496 5508 5514 5518 5524 5531 5540 5546 5554 5560 5566 5574 5584 5591 5597 5604 5609 5615 5621 5626 5631 5636 5641 5645 5649 5652 5655 5658 5660 5662 5663 5665 5666 5666 5666 5666 5666 5665 5663 5662 5660 5657
5476 5480 5488 5499 5504 5509 5517 5527 5533 5538 5545 5551 5558 5569 5578 5583 5589 5595 5601 5607 5613 5618 5624 5629 5633 5637 5641 5645 5648 5650 5652 5654 5656 5657 5658 5658 5658 5658 5658 5657 5655 5654 5651 5649
5468 5472 5484 5491 5496 5502 5509 5517 5522 5528 5535 5543 5552 5560 5566 5573 5580 5586 5593 5599 5605 5610 5616 5621 5625 5630 5634 5637 5640 5642 5645 5647 5648 5649 5650 5650 5651 5650 5649 5648 5647 5645 5643 5640
5461 5468 5475 5480 5486 5493 5499 5506 5512 5519 5526 5534 5542 5550 5557 5565 5572 5579 5585 5592 5597 5603 5608 5613 5618 5622 5626 5630 5632 5635 5637 5639 5641 5642 5642 5643 5643 5642 5641 5640 5639 5637 5634 5632
5451 5459 5465 5470 5476 5483 5490 5497 5503 5510 5518 5526 5534 5542 5549 5557 5564 5571 5578 5584 5590 5596 5600 5605 5610 5614 5618 5622 5625 5627 5630 5632 5633 5634 5635 5635 5635 5634 5633 5632 5630 5628 5626 5623
5442 5450 5456 5461 5468 5474 5481 5488 5495 5503 5511 5518 5526 5534 5541 5548 5556 5563 5570 5576 5583 5588 5593 5598 5602 5606 5610 5614 5617 5620 5622 5624 5625 5626 5627 5627 5627 5626 5625 5624 5622 5620 5617 5614
5435 5442 5446 5452 5458 5465 5472 5480 5487 5495 5503 5511 5519 5526 5533 5540 5548 5555 5562 5568 5574 5580 5585 5590 5594 5599 5602 5606 5609 5612 5614 5616 5618 5619 5619 5619 5619 5618 5617 5615 5613 5611 5609 5606
5426 5430 5435 5442 5449 5456 5464 5472 5479 5487 5495 5503 5511 5518 5526 5533 5540 5547 5554 5560 5566 5572 5577 5582 5587 5591 5595 5598 5602 5604 5607 5608 5610 5611 5611 5611 5611 5610 5609 5607 5605 5603 5601 5598
5416 5421 5427 5434 5441 5448 5456 5464 5471 5479 5487 5495 5503 5510 5518 5525 5532 5539 5546 5552 5558 5564 5569 5574 5579 5583 5587 5591 5594 5596 5599 5601 5602 5603 5603 5603 5603 5602 5601 5599 5597 5595 5592 5589
5408 5413 5420 5427 5433 5440 5448 5456 5464 5472 5480 5488 5495 5503 5510 5517 5524 5531 5538 5544 5550 5556 5562 5567 5571 5576 5580 5583 5586 5588 5591 5593 5594 5595 5595 5595 5594 5593 5592 5591 5589 5587 5584 5581
5401 5406 5412 5419 5426 5433 5441 5449 5457 5465 5473 5481 5489 5496 5503 5510 5517 5524 5530 5537 5543 5549 5554 5559 5564 5568 5572 5575 5578 5581 5583 5585 5586 5587 5587 5587 5586 5585 5584 5583 5581 5579 5576 5573
5395 5400 5405 5412 5419 5427 5435 5443 5451 5459 5467 5475 5482 5489 5496 5503 5510 5516 5523 5529 5535 5541 5547 5552 5556 5560 5564 5567 5571 5573 5575 5577 5578 5578 5579 5579 5578 5577 5576 5574 5572 5570 5567 5564
5388 5393 5399 5405 5412 5420 5428 5436 5444 5452 5460 5468 5475 5482 5489 5496 5503 5510 5516 5522 5528 5534 5539 5544 5549 5553 5557 5560 5563 5565 5567 5569 5570 5571 5571 5571 5570 5569 5568 5566 5564 5562 5559 5556
5382 5386 5392 5398 5405 5413 5422 5430 5438 5446 5454 5461 5468 5476 5483 5490 5496 5503 5509 5515 5521 5527 5532 5537 5542 5546 5550 5553 5555 5558 5559 5561 5562 5563 5563 5563 5562 5561 5559 5558 5556 5553 5550 5547
5375 5380 5385 5391 5398 5407 5415 5424 5432 5440 5448 5455 5462 5470 5476 5483 5490 5496 5503 5509 5515 5520 5526 5530 5535 5539 5542 5545 5548 5550 5552 5553 5554 5555 5555 5554 5554 5553 5551 5549 5547 5545 5542 5538
5367 5373 5378 5384 5392 5400 5409 5417 5426 5435 5443 5450 5457 5464 5471 5477 5484 5490 5497 5503 5508 5514 5519 5524 5528 5532 5535 5538 5540 5542 5544 5545 5546 5546 5546 5546 5545 5544 5543 5541 5539 5536 5533 5529
5360 5366 5372 5378 5385 5394 5403 5411 5420 5429 5437 5444 5451 5458 5465 5471 5478 5485 5491 5497 5502 5507 5512 5517 5521 5525 5528 5530 5533 5535 5536 5537 5538 5538 5538 5538 5537 5536 5534 5532 5530 5527 5524 5520
5354 5360 5366 5372 5380 5389 5397 5406 5415 5423 5431 5438 5446 5453 5460 5466 5473 5479 5485 5491 5496 5501 5506 5510 5514 5517 5520 5523 5525 5527 5528 5529 5530 5530 5530 5530 5529 5527 5526 5524 5521 5518 5515 5511
5350 5355 5361 5368 5375 5384 5392 5401 5409 5417 5425 5433 5440 5447 5454 5461 5467 5474 5479 5484 5490 5494 5499 5503 5506 5510 5513 5515 5517 5519 5520 5521 5522 5522 5522 5521 5520 5519 5517 5515 5512 5509 5505 5501
5346 5352 5358 5365 5372 5380 5388 5395 5403 5412 5420 5427 5434 5441 5448 5455 5462 5468 5473 5478 5483 5488 5492 5495 5499 5502 5505 5508 5510 5511 5512 5513 5513 5513 5513 5512 5511 5510 5508 5505 5503 5499 5496 5491
5344 5349 5356 5362 5369 5376 5383 5391 5399 5407 5415 5422 5429 5436 5443 5449 5455 5461 5466 5471 5476 5481 5485 5488 5492 5495 5497 5500 5502 5503 5504 5504 5504 5504 5504 5503 5502 5500 5498 5496 5493 5489 5486 5481
5341 5347 5354 5360 5366 5373 5380 5387 5395 5403 5410 5417 5424 5431 5437 5444 5450 5455 5460 5465 5470 5474 5478 5481 5484 5487 5490 5492 5493 5495 5495 5496 5496 5495 5495 5494 5493 5491 5489 5486 5483 5479 5475 5471